EDT,Max TemperatureF,Mean TemperatureF,Min TemperatureF,Max Dew PointF,MeanDew PointF,Min DewpointF,Max Humidity, Mean Humidity, Min Humidity, Max Sea Level PressureIn, Mean Sea Level PressureIn, Min Sea Level PressureIn, Max VisibilityMiles, Mean VisibilityMiles, Min VisibilityMiles, Max Wind SpeedMPH, Mean Wind SpeedMPH, Max Gust SpeedMPH,PrecipitationIn, CloudCover, Events, WindDirDegrees
2013-7-1,75,68,62,57,50,46,57,51,43,30.03,30.01,29.99,10,10,7,17,10,23,0.00,4,,47
2013-7-2,64,62,59,63,58,55,94,88,77,30.06,30.06,30.05,10,8,4,9,6,,0.00,8,Rain,35
2013-7-3,78,73,68,64,62,59,88,68,51,30.10,30.07,30.05,10,9,7,14,7,23,0.00,6,,193
2013-7-4,77,70,62,64,59,57,100,64,50,30.16,30.14,30.10,10,9,2,7,3,,0.00,2,,201
2013-7-5,80,74,68,64,63,61,88,64,54,30.14,30.11,30.08,10,9,5,6,1,,0.00,5,,203
2013-7-6,78,74,69,68,66,64,88,72,61,30.12,30.08,30.04,10,10,7,9,3,,0.00,5,,193
2013-7-7,82,75,68,68,68,66,100,79,58,30.07,30.06,30.02,10,8,4,9,6,,0.00,5,,215
2013-7-8,80,76,71,70,68,68,88,78,65,30.08,30.04,30.00,10,10,7,12,8,,0.00,5,Rain,222
2013-7-9,86,80,73,75,74,72,100,86,70,30.03,30.00,29.94,10,6,2,17,4,32,0.00,7,Rain-Thunderstorm,240
2013-7-10,82,80,77,75,70,59,94,74,54,29.93,29.88,29.86,10,9,7,14,7,23,0.00,6,,292
2013-7-11,77,70,62,59,52,46,82,51,34,30.10,30.09,30.08,10,10,10,9,4,,0.00,1,,350
2013-7-12,80,71,62,59,55,52,82,56,37,30.17,30.15,30.12,10,10,10,9,3,,0.00,0,,68
2013-7-13,84,75,66,63,61,59,78,58,45,30.19,30.16,30.02,10,10,10,9,6,,0.00,3,,93
2013-7-14,87,78,69,66,64,50,88,57,34,30.25,30.23,30.22,10,10,10,9,7,,0.00,3,,110
2013-7-15,89,82,75,73,72,70,89,68,52,30.30,30.28,30.26,10,10,7,8,2,,0.00,3,,293
2013-7-16,89,82,75,73,68,66,94,55,46,30.35,30.33,30.30,10,10,10,8,5,,0.00,2,,243
2013-7-17,91,83,75,72,70,68,89,60,46,30.35,30.30,30.23,10,10,10,10,5,,0.00,4,,288
2013-7-18,91,83,75,73,71,70,94,66,49,30.18,30.14,30.05,10,10,7,17,4,25,0.00,2,Thunderstorm,240
2013-7-19,93,84,77,72,69,64,83,55,38,29.96,29.89,29.81,10,10,10,14,10,25,0.00,2,,237
2013-7-20,86,80,75,68,61,55,78,52,37,29.90,29.88,29.85,10,10,10,10,5,,0.00,1,,336
2013-7-21,86,77,68,63,60,57,78,53,37,30.00,29.98,29.91,10,10,10,6,4,,0.00,3,,123
2013-7-22,82,75,68,66,63,61,94,63,48,29.88,29.85,29.81,10,10,10,12,6,,0.00,2,Rain,150
2013-7-23,78,74,71,66,62,54,83,64,50,29.85,29.80,29.77,10,10,10,17,10,25,0.00,3,,292
2013-7-24,73,63,53,48,46,45,82,52,38,30.05,30.04,30.02,10,10,10,9,4,,0.00,0,,24
2013-7-25,77,68,59,55,51,48,88,51,39,30.13,30.11,30.08,10,10,10,7,2,,0.00,2,,223
2013-7-26,75,70,64,57,56,54,68,58,50,30.07,30.03,29.97,10,10,10,10,7,,0.00,3,,204
2013-7-27,69,68,62,64,58,50,94,73,63,29.88,29.86,29.85,10,9,3,17,8,25,0.00,7,Rain,304
2013-7-28,66,60,55,48,48,46,72,61,52,29.98,29.94,29.91,10,10,7,15,10,21,0.00,8,,250
2013-7-29,71,64,57,54,53,50,77,64,53,30.19,30.14,30.06,10,10,10,10,6,16,0.00,6,,305
2013-7-30,77,65,53,57,56,54,100,63,44,30.23,30.18,30.13,10,10,7,7,2,,0.00,4,,196
2013-7-31,68,66,64,66,65,63,100,94,88,30.07,30.02,29.97,10,5,1,9,4,,0.00,8,Rain,208